Location: Camp Crooked Creek
(37.9149°N, 85.6607°W)
Time: 15:13:43
(UTC-04:00)

Daily predictions for brighter satellites

Satellite Brightness Start Highest point End
(mag) Time Altitude Azimuth Time Altitude Azimuth Time Altitude Azimuth
Resurs 1-3 3.7 21:29:42 10° SSE 21:34:02 68° ENE 21:38:24 10° N
Cosmos 2263 Rocket 2.3 21:29:29 10° SSW 21:35:10 88° ESE 21:40:52 10° NNE
NOSS 2-3 (C) 3.8 21:34:02 10° SSW 21:38:30 89° SE 21:43:40 10° NNE
Cosmos 1758 3.6 21:35:13 10° N 21:39:19 74° W 21:43:21 10° S
Cosmos 1603 4.2 21:34:58 10° NNW 21:40:37 65° WSW 21:46:17 10° S
YAOGAN 6 3.5 21:38:55 10° S 21:42:21 48° W 21:45:47 10° NNW
Cosmos 1602 Rocket 3.7 21:38:10 10° S 21:42:38 89° WNW 21:47:09 10° N
USA 215 3.4 21:38:25 10° SE 21:45:00 89° NNE 21:51:36 10° NW
Cosmos 1812 Rocket 3.6 21:42:45 10° N 21:47:04 60° E 21:51:22 10° SSE
OAO 3 Rocket 3.5 21:43:45 10° WSW 21:48:31 49° SSE 21:53:16 10° E
Cosmos 1707 2.8 21:50:35 10° S 21:54:27 85° W 21:58:19 10° N
Resurs 01 Rocket 1.8 21:50:10 10° S 21:54:33 75° WSW 21:59:00 10° NNW
Cosmos 1315 Rocket 3.6 21:52:24 10° SSE 21:56:00 33° E 21:59:40 10° NNE
Cosmos 1953 2.9 21:55:14 10° NNW 21:59:09 58° W 22:03:04 10° S
Cosmos 1758 Rocket 4.2 21:55:08 10° SSE 21:59:16 39° E 22:03:23 10° NNE
Cosmos 1452 Rocket 3.7 21:54:02 10° NNW 21:59:17 63° ENE 22:04:24 11° SSE
Spot 2 Rocket 3.5 21:55:20 10° SSE 22:00:22 87° ENE 22:05:27 10° NNW
Cosmos 1420 Rocket 4.2 21:56:36 10° N 22:01:42 57° ENE 22:06:25 12° SSE
Cosmos 158 Rocket 4.2 21:57:13 10° SSW 22:02:33 80° WNW 22:07:49 10° NNE
Cosmos 1674 4.4 22:08:26 14° ESE 22:09:57 17° E 22:12:32 10° NE
Hubble Space Telescope 3.0 22:09:00 10° SW 22:10:31 12° SSW 22:12:01 10° S
H-2A R/B 2.5 22:11:50 14° SE 22:16:10 49° ENE 22:21:21 10° N
Cosmos 1437 4.1 22:14:49 10° NNE 22:17:27 24° ENE 22:18:41 19° ESE
Helios 1B rocket 4.4 22:16:02 10° ENE 22:17:42 12° E 22:18:01 12° E
Cosmos 1943 4.0 22:18:06 10° NW 22:23:31 48° WSW 22:28:52 10° S
Cosmos 2278 Rocket 3.9 22:23:34 13° ESE 22:24:08 13° E 22:26:34 10° ENE
Cosmos 1400 Rocket 4.1 22:21:05 10° SSW 22:24:56 43° WNW 22:28:46 10° N
Cosmos 1825 Rocket 3.6 22:20:34 10° S 22:25:01 88° W 22:29:31 10° N
Aureole 1 Rocket 2.6 22:23:19 10° SSW 22:26:20 67° WNW 22:29:55 10° NNE
Cosmos 1269 Rocket 4.0 22:22:48 10° S 22:28:01 63° ESE 22:33:16 10° NNE
ERS-2 3.8 22:26:12 10° SSW 22:29:28 30° W 22:32:45 10° NW
Cosmos 2285 Rocket 3.9 22:23:17 10° S 22:29:35 73° ESE 22:35:53 10° NNE
Terra 3.7 22:31:36 12° E 22:33:43 16° ENE 22:36:36 10° NNE
DMSP B5D2-2 4.4 22:29:25 10° NNE 22:34:25 44° E 22:37:55 18° SSE
Cosmos 921 Rocket 4.2 22:31:06 10° N 22:35:05 31° ENE 22:37:08 21° ESE
Cosmos 1726 3.7 22:33:15 10° NNE 22:36:04 20° ENE 22:36:55 18° E
ARGOS 3.2 22:32:47 15° SSE 22:37:23 85° WSW 22:42:51 10° NNW
Cosmos 1346 Rocket 3.2 22:33:58 10° N 22:37:51 47° ENE 22:39:42 27° SE
ATLAS 3B R/B 4.0 22:32:36 10° NNW 22:38:12 28° NE 22:43:02 13° E
Cosmos 494 Rocket 4.3 22:38:00 17° S 22:41:49 46° ESE 22:46:51 10° NNE
Cosmos 1844 3.8 22:39:21 10° S 22:44:50 53° ESE 22:50:25 10° NNE
Cosmos 1844 Rocket 2.6 22:42:35 10° SSW 22:48:14 76° ESE 22:53:53 10° NNE
KORONAS-FOTON 4.4 22:47:23 32° SE 22:48:29 40° E 22:52:09 10° NNE
S3M 4.5 22:45:02 22° SSE 22:48:44 44° E 22:54:43 10° NNE
Meteor 1-24 Rocket 3.9 22:43:31 10° S 22:49:32 86° W 22:55:36 10° N
MetOp-A 4.4 22:45:49 16° S 22:50:05 68° WSW 22:55:26 10° NNW
ATLAS 2AS CENTAUR R/B 3.1 22:52:29 10° SSW 23:00:15 87° WNW 23:08:25 10° NNE
Cosmos 2251 Rocket 4.2 22:59:38 30° SE 23:01:00 35° E 23:05:47 10° NE
SPOT 5 3.1 22:59:19 31° SE 23:01:38 62° ENE 23:06:47 10° N
Cosmos 220 Rocket 4.4 23:04:00 37° ESE 23:04:21 38° ESE 23:08:16 10° NE
Centaur D-1A AC-35 4.3 23:03:01 10° SSW 23:03:10 10° SSW 23:03:10 10° SSW
Iridium 18 4.4 23:07:53 49° SSW 23:08:36 73° W 23:12:10 10° N
ERS-1 Rocket 3.1 23:06:48 27° S 23:09:34 70° WSW 23:14:37 10° NNW
Cosmos 1238 Rocket 4.1 23:08:13 13° SW 23:10:16 25° W 23:12:49 10° NNW
Lacrosse 5 3.2 23:05:56 10° WSW 23:10:44 42° NW 23:15:33 10° NNE
ATLAS 5 CENTAUR R/B 3.9 23:13:17 11° ENE 23:13:17 11° ENE 23:13:43 10° ENE
Cosmos 2082 Rocket 4.4 23:10:12 10° NNE 23:12:36 13° NE 23:15:01 10° ENE
IGS 5A 4.0 23:12:05 38° ESE 23:12:51 42° ENE 23:16:48 10° N
Cosmos 1553 Rocket 3.8 23:09:11 23° S 23:13:08 82° E 23:19:13 10° N
Cosmos 1908 3.1 23:10:24 10° N 23:14:16 86° W 23:15:12 50° S
Cosmos-2242 3.6 23:12:34 10° NNW 23:16:52 53° W 23:18:55 28° SSW
Meteor 2-1 Rocket 4.3 23:13:59 10° N 23:19:57 90° W 23:22:44 33° S
Cosmos 1842 Rocket 3.6 23:18:17 10° N 23:22:34 57° E 23:23:15 50° ESE
Meteor 1-29 3.5 23:21:29 10° NNE 23:24:13 45° ENE 23:24:13 45° ENE
Cosmos 2084 3.1 23:23:10 10° NW 23:27:00 70° WSW 23:27:20 64° SSW
SL-8 R/B 4.3 23:25:42 10° WSW 23:30:27 58° NNW 23:35:15 10° NE
OAO 3 Rocket 3.2 23:26:59 10° W 23:31:52 62° S 23:32:33 55° SE
Cosmos 1626 3.7 23:35:20 24° ENE 23:35:20 24° ENE 23:37:29 10° NNE
CZ-2C R/B 3.0 23:30:12 10° NNE 23:35:19 42° E 23:35:50 40° ESE
Cosmos 1340 2.5 23:31:57 10° N 23:35:45 85° W 23:35:53 82° SSW
Helios 1A 3.4 23:36:24 44° SW 23:37:19 54° W 23:41:27 10° NNW
NOSS 3-4 (A) 3.5 23:35:38 40° S 23:37:36 56° ESE 23:43:45 10° NE
NOSS 3-4 (C) 3.5 23:35:49 40° SSE 23:37:41 55° ESE 23:43:50 10° NE
Cosmos 1386 Rocket 4.3 23:34:27 10° N 23:40:33 75° E 23:42:28 45° SSE
Cosmos 1300 2.9 23:43:31 10° N 23:46:59 64° NE 23:46:59 64° NE
CENTAUR R/B 4.4 23:41:25 10° NNW 23:48:17 31° NE 23:54:13 15° E
Landsat 7 4.3 23:50:31 42° SW 23:51:39 52° W 23:56:18 10° NNW
Meteor 1-21 Rocket 4.4 23:49:44 35° SSW 23:52:21 73° W 23:58:12 10° N
Helios 1B rocket 3.3 23:49:16 10° N 23:53:12 46° WNW 23:54:22 35° WSW
H-2A R/B 4.2 23:52:28 11° SW 23:55:50 19° W 23:59:33 10° NW
